QPF
0.06 0.07 0.07 0.08 0.10 0.10 0.08 0.10 0.15 0.17 0.15 0.16 0.14 0.10 0.10 0.10 0.09 0.08 0.07 0.05 0.05 0.06 0.06 0.08 0.09 0.08 0.09 0.11 0.11 0.11 0.09 0.08 0.07 0.06 0.06 0.06 0.05 0.04 0.04 0.06 0.06 0.04 0.03
0.07 0.08 0.09 0.09 0.10 0.13 0.14 0.12 0.13 0.18 0.15 0.15 0.15 0.15 0.14 0.12 0.10 0.07 0.05 0.07 0.05 0.05 0.06 0.07 0.09 0.10 0.11 0.14 0.12 0.11 0.10 0.09 0.08 0.07 0.06 0.05 0.04 0.04 0.05 0.06 0.06 0.05 0.05
0.06 0.08 0.08 0.09 0.09 0.12 0.15 0.15 0.14 0.18 0.17 0.12 0.11 0.11 0.11 0.10 0.08 0.06 0.05 0.05 0.06 0.04 0.05 0.06 0.07 0.08 0.11 0.14 0.14 0.13 0.15 0.12 0.09 0.07 0.06 0.07 0.07 0.06 0.06 0.05 0.06 0.08 0.08
0.04 0.05 0.04 0.04 0.06 0.07 0.09 0.11 0.11 0.14 0.16 0.14 0.10 0.09 0.09 0.08 0.07 0.07 0.07 0.06 0.07 0.06 0.07 0.07 0.07 0.09 0.11 0.14 0.16 0.15 0.16 0.16 0.12 0.09 0.07 0.07 0.06 0.06 0.07 0.07 0.07 0.08 0.08
0.04 0.05 0.05 0.05 0.05 0.05 0.06 0.05 0.07 0.09 0.10 0.14 0.12 0.09 0.08 0.07 0.08 0.08 0.06 0.06 0.06 0.06 0.08 0.08 0.08 0.07 0.07 0.11 0.14 0.14 0.14 0.16 0.16 0.12 0.08 0.06 0.05 0.05 0.06 0.08 0.08 0.07 0.07
0.03 0.05 0.05 0.05 0.07 0.07 0.08 0.08 0.08 0.08 0.08 0.11 0.11 0.11 0.09 0.09 0.07 0.06 0.06 0.05 0.06 0.06 0.08 0.09 0.09 0.06 0.04 0.05 0.09 0.11 0.12 0.14 0.18 0.18 0.12 0.08 0.08 0.07 0.06 0.07 0.06 0.06 0.06
0.04 0.05 0.04 0.05 0.07 0.08 0.09 0.08 0.07 0.06 0.07 0.11 0.14 0.15 0.14 0.11 0.08 0.07 0.07 0.06 0.06 0.07 0.09 0.10 0.09 0.06 0.04 0.04 0.06 0.08 0.12 0.13 0.16 0.17 0.14 0.09 0.09 0.08 0.06 0.07 0.06 0.05 0.05
0.05 0.07 0.08 0.07 0.08 0.08 0.09 0.08 0.07 0.07 0.07 0.11 0.11 0.12 0.11 0.10 0.07 0.05 0.05 0.05 0.05 0.05 0.06 0.05 0.05 0.05 0.05 0.06 0.08 0.08 0.10 0.13 0.14 0.18 0.14 0.09 0.08 0.07 0.07 0.07 0.06 0.05 0.05
0.04 0.05 0.08 0.07 0.07 0.07 0.06 0.07 0.08 0.09 0.09 0.10 0.10 0.10 0.10 0.08 0.06 0.04 0.03 0.03 0.03 0.04 0.04 0.03 0.03 0.04 0.05 0.07 0.09 0.08 0.07 0.09 0.12 0.17 0.17 0.13 0.11 0.10 0.09 0.09 0.09 0.08 0.07
0.05 0.04 0.05 0.06 0.06 0.05 0.06 0.08 0.07 0.09 0.11 0.11 0.10 0.10 0.10 0.09 0.08 0.08 0.06 0.03 0.03 0.02 0.02 0.02 0.03 0.04 0.05 0.07 0.09 0.06 0.04 0.05 0.08 0.12 0.17 0.19 0.18 0.13 0.11 0.11 0.12 0.11 0.08
0.05 0.04 0.04 0.04 0.05 0.05 0.05 0.07 0.09 0.09 0.09 0.10 0.11 0.10 0.09 0.08 0.07 0.07 0.08 0.07 0.05 0.03 0.02 0.01 0.02 0.05 0.05 0.06 0.07 0.05 0.04 0.04 0.06 0.08 0.10 0.16 0.23 0.22 0.15 0.12 0.10 0.08 0.07
0.05 0.04 0.04 0.05 0.07 0.08 0.13 0.10 0.10 0.10 0.10 0.10 0.10 0.11 0.11 0.11 0.10 0.08 0.08 0.08 0.06 0.03 0.02 0.02 0.01 0.03 0.03 0.03 0.03 0.02 0.04 0.04 0.04 0.05 0.07 0.09 0.13 0.21 0.17 0.14 0.12 0.11 0.10
0.03 0.03 0.04 0.06 0.07 0.08 0.12 0.13 0.10 0.08 0.09 0.10 0.10 0.11 0.10 0.11 0.12 0.10 0.09 0.06 0.05 0.03 0.03 0.02 0.01 0.02 0.02 0.02 0.04 0.02 0.04 0.06 0.06 0.05 0.05 0.07 0.09 0.13 0.10 0.09 0.08 0.09 0.09
0.02 0.03 0.04 0.05 0.05 0.05 0.05 0.07 0.07 0.06 0.07 0.08 0.10 0.09 0.08 0.09 0.10 0.10 0.09 0.08 0.06 0.05 0.05 0.03 0.02 0.03 0.03 0.03 0.04 0.03 0.04 0.07 0.08 0.07 0.07 0.07 0.08 0.09 0.07 0.06 0.05 0.05 0.05
0.01 0.02 0.02 0.03 0.03 0.03 0.05 0.05 0.05 0.05 0.07 0.08 0.09 0.08 0.11 0.10 0.08 0.08 0.08 0.11 0.10 0.08 0.07 0.05 0.03 0.03 0.03 0.03 0.02 0.03 0.05 0.06 0.07 0.06 0.07 0.07 0.07 0.08 0.07 0.05 0.04 0.04 0.03
0.01 0.01 0.01 0.02 0.02 0.02 0.03 0.03 0.06 0.08 0.09 0.10 0.13 0.11 0.09 0.09 0.09 0.09 0.09 0.10 0.10 0.10 0.07 0.04 0.03 0.02 0.02 0.03 0.04 0.04 0.07 0.07 0.07 0.06 0.05 0.05 0.06 0.08 0.07 0.05 0.04 0.03 0.02
0.01 0.01 0.02 0.02 0.03 0.03 0.02 0.02 0.03 0.06 0.08 0.09 0.08 0.07 0.06 0.06 0.06 0.05 0.05 0.06 0.07 0.08 0.07 0.04 0.04 0.03 0.03 0.04 0.05 0.07 0.10 0.10 0.08 0.06 0.05 0.05 0.04 0.06 0.07 0.04 0.03 0.02 0.01
0.01 0.01 0.02 0.02 0.03 0.03 0.03 0.03 0.03 0.04 0.05 0.05 0.04 0.04 0.05 0.04 0.04 0.04 0.04 0.04 0.05 0.06 0.06 0.05 0.05 0.03 0.03 0.07 0.11 0.10 0.11 0.10 0.08 0.06 0.05 0.04 0.04 0.04 0.04 0.05 0.03 0.02 0.01
0.01 0.02 0.02 0.03 0.03 0.04 0.04 0.04 0.04 0.05 0.06 0.06 0.06 0.05 0.05 0.04 0.04 0.04 0.04 0.04 0.04 0.05 0.05 0.05 0.05 0.04 0.04 0.06 0.14 0.14 0.13 0.10 0.07 0.07 0.05 0.04 0.04 0.03 0.03 0.04 0.05 0.03 0.02
0.01 0.02 0.02 0.02 0.02 0.02 0.03 0.04 0.05 0.05 0.03 0.03 0.04 0.05 0.04 0.03 0.03 0.04 0.04 0.05 0.06 0.05 0.05 0.04 0.04 0.05 0.05 0.06 0.10 0.15 0.15 0.13 0.10 0.07 0.05 0.04 0.04 0.04 0.04 0.04 0.05 0.05 0.03
0.02 0.02 0.03 0.02 0.02 0.02 0.03 0.03 0.04 0.03 0.03 0.03 0.03 0.03 0.04 0.03 0.03 0.02 0.03 0.05 0.05 0.05 0.04 0.04 0.04 0.04 0.04 0.05 0.06 0.13 0.15 0.15 0.14 0.10 0.05 0.03 0.03 0.03 0.04 0.05 0.05 0.04 0.04
0.03 0.03 0.03 0.02 0.02 0.01 0.01 0.02 0.02 0.02 0.02 0.02 0.03 0.02 0.02 0.02 0.02 0.02 0.02 0.02 0.03 0.04 0.05 0.05 0.05 0.04 0.05 0.05 0.06 0.11 0.15 0.15 0.15 0.11 0.07 0.05 0.04 0.03 0.03 0.04 0.04 0.03 0.02
0.03 0.03 0.02 0.02 0.01 0.02 0.01 0.01 0.01 0.03 0.02 0.02 0.02 0.01 0.01 0.01 0.02 0.02 0.02 0.02 0.02 0.03 0.03 0.04 0.05 0.06 0.06 0.06 0.06 0.10 0.15 0.14 0.12 0.10 0.07 0.06 0.05 0.04 0.03 0.03 0.03 0.03 0.04
0.01 0.01 0.02 0.02 0.02 0.02 0.01 0.01 0.01 0.02 0.02 0.02 0.02 0.02 0.02 0.03 0.03 0.03 0.02 0.02 0.02 0.02 0.02 0.02 0.05 0.07 0.06 0.07 0.09 0.10 0.15 0.15 0.12 0.10 0.06 0.06 0.05 0.05 0.03 0.03 0.02 0.02 0.04
0.02 0.02 0.02 0.03 0.03 0.02 0.02 0.01 0.02 0.03 0.03 0.03 0.03 0.02 0.03 0.03 0.03 0.02 0.04 0.04 0.03 0.02 0.01 0.01 0.02 0.03 0.04 0.05 0.07 0.09 0.12 0.15 0.13 0.11 0.07 0.06 0.05 0.05 0.04 0.03 0.02 0.02 0.02
0.02 0.03 0.04 0.04 0.03 0.02 0.02 0.02 0.02 0.03 0.04 0.04 0.03 0.03 0.03 0.03 0.03 0.03 0.03 0.04 0.04 0.03 0.03 0.02 0.02 0.01 0.01 0.02 0.03 0.05 0.07 0.12 0.13 0.11 0.08 0.06 0.05 0.04 0.05 0.04 0.03 0.01 0.01
MSLP
1004.32 1004.65 1004.95 1005.19 1005.37 1005.50 1005.59 1005.64 1005.64 1005.58 1005.45 1005.25 1004.99 1004.71 1004.45 1004.27 1004.21 1004.31 1004.58 1004.99 1005.49 1006.03 1006.55 1007.02 1007.41 1007.72 1007.98 1008.23 1008.49 1008.79 1009.13 1009.52 1009.91 1010.29 1010.63 1010.93 1011.17 1011.37 1011.56 1011.75 1011.96 1012.20 1012.47
1005.20 1005.36 1005.48 1005.55 1005.59 1005.61 1005.62 1005.60 1005.54 1005.42 1005.23 1004.95 1004.60 1004.21 1003.84 1003.55 1003.39 1003.41 1003.60 1003.94 1004.40 1004.91 1005.43 1005.90 1006.31 1006.66 1006.97 1007.27 1007.60 1007.97 1008.38 1008.83 1009.27 1009.69 1010.04 1010.33 1010.56 1010.74 1010.91 1011.09 1011.31 1011.57 1011.86
1005.91 1005.93 1005.90 1005.84 1005.77 1005.69 1005.63 1005.55 1005.45 1005.29 1005.05 1004.72 1004.32 1003.88 1003.44 1003.08 1002.85 1002.79 1002.90 1003.18 1003.57 1004.02 1004.49 1004.94 1005.34 1005.69 1006.03 1006.38 1006.76 1007.18 1007.64 1008.12 1008.58 1008.98 1009.31 1009.57 1009.75 1009.90 1010.04 1010.22 1010.46 1010.76 1011.11
1006.44 1006.36 1006.23 1006.07 1005.92 1005.78 1005.65 1005.53 1005.38 1005.19 1004.93 1004.58 1004.16 1003.70 1003.25 1002.87 1002.61 1002.51 1002.56 1002.77 1003.08 1003.46 1003.86 1004.24 1004.60 1004.94 1005.28 1005.65 1006.05 1006.49 1006.95 1007.42 1007.83 1008.18 1008.43 1008.60 1008.70 1008.78 1008.89 1009.07 1009.34 1009.72 1010.16
1006.86 1006.71 1006.52 1006.31 1006.09 1005.90 1005.72 1005.55 1005.36 1005.14 1004.86 1004.51 1004.10 1003.67 1003.25 1002.90 1002.65 1002.54 1002.57 1002.72 1002.97 1003.26 1003.57 1003.88 1004.17 1004.47 1004.78 1005.13 1005.51 1005.93 1006.35 1006.74 1007.06 1007.29 1007.41 1007.44 1007.42 1007.42 1007.48 1007.66 1007.98 1008.43 1008.99
1007.24 1007.06 1006.84 1006.59 1006.35 1006.10 1005.88 1005.65 1005.41 1005.15 1004.85 1004.50 1004.12 1003.74 1003.39 1003.10 1002.91 1002.83 1002.86 1002.98 1003.16 1003.38 1003.60 1003.82 1004.04 1004.28 1004.54 1004.84 1005.18 1005.53 1005.86 1006.14 1006.31 1006.36 1006.30 1006.16 1006.00 1005.88 1005.87 1006.04 1006.40 1006.95 1007.64
1007.68 1007.48 1007.24 1006.98 1006.71 1006.43 1006.14 1005.86 1005.56 1005.24 1004.91 1004.56 1004.22 1003.90 1003.62 1003.42 1003.30 1003.27 1003.32 1003.43 1003.57 1003.72 1003.86 1004.00 1004.15 1004.32 1004.53 1004.77 1005.04 1005.30 1005.51 1005.63 1005.63 1005.48 1005.22 1004.88 1004.54 1004.30 1004.21 1004.36 1004.75 1005.37 1006.17
1008.20 1008.00 1007.76 1007.49 1007.19 1006.87 1006.54 1006.18 1005.82 1005.44 1005.07 1004.71 1004.39 1004.11 1003.91 1003.78 1003.74 1003.77 1003.84 1003.95 1004.05 1004.15 1004.23 1004.31 1004.40 1004.51 1004.67 1004.85 1005.04 1005.21 1005.30 1005.27 1005.08 1004.73 1004.27 1003.73 1003.23 1002.85 1002.68 1002.78 1003.18 1003.85 1004.72
1008.82 1008.61 1008.37 1008.09 1007.78 1007.43 1007.05 1006.63 1006.20 1005.77 1005.34 1004.96 1004.64 1004.39 1004.23 1004.16 1004.16 1004.23 1004.32 1004.42 1004.50 1004.56 1004.60 1004.63 1004.68 1004.76 1004.87 1005.01 1005.15 1005.23 1005.22 1005.05 1004.71 1004.20 1003.56 1002.87 1002.22 1001.72 1001.46 1001.51 1001.89 1002.56 1003.45
1009.47 1009.25 1009.01 1008.74 1008.42 1008.06 1007.64 1007.19 1006.70 1006.22 1005.75 1005.33 1004.99 1004.74 1004.59 1004.53 1004.55 1004.62 1004.70 1004.78 1004.84 1004.87 1004.87 1004.88 1004.90 1004.97 1005.07 1005.19 1005.29 1005.33 1005.25 1005.00 1004.55 1003.93 1003.18 1002.38 1001.63 1001.04 1000.71 1000.69 1001.02 1001.64 1002.49
1010.11 1009.87 1009.63 1009.36 1009.05 1008.69 1008.28 1007.81 1007.30 1006.78 1006.28 1005.83 1005.46 1005.19 1005.01 1004.93 1004.92 1004.95 1005.00 1005.04 1005.06 1005.05 1005.03 1005.03 1005.05 1005.11 1005.22 1005.34 1005.44 1005.46 1005.36 1005.08 1004.60 1003.94 1003.15 1002.31 1001.52 1000.89 1000.50 1000.42 1000.66 1001.19 1001.94
1010.66 1010.41 1010.17 1009.92 1009.64 1009.30 1008.91 1008.46 1007.97 1007.45 1006.93 1006.46 1006.06 1005.74 1005.51 1005.37 1005.29 1005.26 1005.25 1005.23 1005.20 1005.15 1005.11 1005.10 1005.12 1005.20 1005.32 1005.46 1005.57 1005.61 1005.52 1005.26 1004.81 1004.18 1003.42 1002.62 1001.86 1001.23 1000.82 1000.68 1000.82 1001.22 1001.81
1011.11 1010.85 1010.62 1010.39 1010.14 1009.86 1009.52 1009.12 1008.67 1008.17 1007.67 1007.19 1006.76 1006.39 1006.10 1005.89 1005.73 1005.61 1005.51 1005.42 1005.33 1005.25 1005.18 1005.16 1005.18 1005.27 1005.40 1005.56 1005.70 1005.77 1005.72 1005.51 1005.13 1004.59 1003.93 1003.23 1002.54 1001.97 1001.57 1001.38 1001.43 1001.67 1002.07
1011.47 1011.21 1010.98 1010.78 1010.58 1010.35 1010.08 1009.76 1009.37 1008.93 1008.46 1007.99 1007.55 1007.14 1006.79 1006.49 1006.25 1006.04 1005.85 1005.69 1005.54 1005.41 1005.32 1005.28 1005.30 1005.38 1005.51 1005.67 1005.82 1005.92 1005.91 1005.77 1005.49 1005.08 1004.56 1003.99 1003.44 1002.95 1002.59 1002.38 1002.34 1002.43 1002.62
1011.80 1011.53 1011.31 1011.14 1010.98 1010.82 1010.62 1010.36 1010.05 1009.67 1009.26 1008.81 1008.37 1007.93 1007.53 1007.17 1006.85 1006.56 1006.30 1006.07 1005.87 1005.70 1005.58 1005.52 1005.51 1005.58 1005.69 1005.83 1005.97 1006.06 1006.09 1006.02 1005.83 1005.55 1005.18 1004.77 1004.37 1004.00 1003.71 1003.50 1003.38 1003.34 1003.34
1012.15 1011.88 1011.68 1011.52 1011.40 1011.28 1011.13 1010.94 1010.69 1010.38 1010.01 1009.60 1009.16 1008.72 1008.29 1007.89 1007.51 1007.16 1006.84 1006.56 1006.32 1006.12 1005.98 1005.88 1005.85 1005.88 1005.95 1006.04 1006.13 1006.21 1006.23 1006.20 1006.09 1005.92 1005.70 1005.45 1005.19 1004.95 1004.74 1004.56 1004.40 1004.26 1004.11
1012.58 1012.32 1012.12 1011.98 1011.87 1011.77 1011.65 1011.50 1011.29 1011.02 1010.69 1010.30 1009.89 1009.45 1009.01 1008.58 1008.17 1007.79 1007.44 1007.13 1006.87 1006.65 1006.48 1006.36 1006.29 1006.26 1006.27 1006.29 1006.32 1006.34 1006.33 1006.30 1006.24 1006.15 1006.04 1005.92 1005.81 1005.69 1005.57 1005.43 1005.27 1005.07 1004.82
1013.11 1012.87 1012.67 1012.52 1012.40 1012.29 1012.17 1012.02 1011.82 1011.57 1011.25 1010.89 1010.49 1010.06 1009.62 1009.18 1008.77 1008.38 1008.02 1007.71 1007.43 1007.21 1007.02 1006.87 1006.76 1006.68 1006.61 1006.56 1006.50 1006.45 1006.39 1006.33 1006.27 1006.23 1006.20 1006.18 1006.17 1006.16 1006.13 1006.06 1005.93 1005.72 1005.44
1013.73 1013.50 1013.30 1013.13 1012.98 1012.84 1012.69 1012.51 1012.28 1012.02 1011.70 1011.34 1010.94 1010.52 1010.09 1009.67 1009.26 1008.87 1008.52 1008.21 1007.94 1007.71 1007.52 1007.35 1007.20 1007.07 1006.93 1006.80 1006.66 1006.52 1006.40 1006.29 1006.22 1006.18 1006.19 1006.24 1006.32 1006.39 1006.45 1006.45 1006.38 1006.21 1005.93
1014.36 1014.14 1013.94 1013.75 1013.56 1013.37 1013.16 1012.93 1012.66 1012.36 1012.02 1011.65 1011.26 1010.84 1010.43 1010.01 1009.62 1009.25 1008.91 1008.61 1008.34 1008.12 1007.91 1007.73 1007.55 1007.37 1007.19 1006.98 1006.77 1006.57 1006.37 1006.21 1006.11 1006.06 1006.09 1006.17 1006.29 1006.44 1006.57 1006.64 1006.64 1006.54 1006.33
1014.92 1014.73 1014.52 1014.31 1014.08 1013.83 1013.56 1013.27 1012.95 1012.60 1012.23 1011.85 1011.45 1011.04 1010.63 1010.23 1009.85 1009.50 1009.17 1008.87 1008.61 1008.38 1008.17 1007.98 1007.78 1007.57 1007.35 1007.10 1006.84 1006.58 1006.34 1006.13 1005.99 1005.92 1005.94 1006.03 1006.18 1006.37 1006.56 1006.71 1006.78 1006.76 1006.64
1015.36 1015.18 1014.97 1014.74 1014.48 1014.18 1013.86 1013.51 1013.14 1012.75 1012.35 1011.95 1011.55 1011.15 1010.76 1010.37 1010.00 1009.65 1009.33 1009.03 1008.77 1008.53 1008.31 1008.10 1007.89 1007.67 1007.43 1007.16 1006.88 1006.59 1006.32 1006.08 1005.91 1005.81 1005.81 1005.89 1006.05 1006.26 1006.49 1006.69 1006.84 1006.91 1006.89
1015.60 1015.44 1015.24 1015.00 1014.72 1014.39 1014.03 1013.65 1013.24 1012.83 1012.42 1012.01 1011.62 1011.23 1010.85 1010.48 1010.11 1009.77 1009.44 1009.13 1008.85 1008.60 1008.36 1008.14 1007.93 1007.70 1007.46 1007.20 1006.91 1006.62 1006.34 1006.08 1005.89 1005.77 1005.74 1005.80 1005.95 1006.16 1006.40 1006.64 1006.85 1006.99 1007.06
1015.65 1015.51 1015.32 1015.09 1014.80 1014.47 1014.10 1013.70 1013.28 1012.86 1012.45 1012.06 1011.68 1011.31 1010.94 1010.58 1010.23 1009.88 1009.54 1009.21 1008.91 1008.64 1008.39 1008.16 1007.94 1007.72 1007.48 1007.23 1006.97 1006.68 1006.41 1006.15 1005.94 1005.80 1005.74 1005.77 1005.89 1006.07 1006.31 1006.56 1006.79 1006.99 1007.12
1015.54 1015.41 1015.24 1015.03 1014.76 1014.44 1014.08 1013.69 1013.28 1012.88 1012.49 1012.12 1011.76 1011.41 1011.06 1010.72 1010.37 1010.01 1009.66 1009.31 1008.99 1008.69 1008.43 1008.18 1007.96 1007.75 1007.54 1007.31 1007.06 1006.80 1006.53 1006.28 1006.06 1005.89 1005.80 1005.78 1005.85 1006.00 1006.19 1006.43 1006.66 1006.87 1007.04
1015.33 1015.21 1015.06 1014.87 1014.63 1014.34 1014.01 1013.65 1013.28 1012.90 1012.54 1012.19 1011.86 1011.53 1011.20 1010.86 1010.51 1010.15 1009.79 1009.43 1009.09 1008.77 1008.49 1008.25 1008.03 1007.83 1007.63 1007.42 1007.20 1006.96 1006.70 1006.45 1006.21 1006.02 1005.88 1005.81 1005.82 1005.90 1006.04 1006.23 1006.43 1006.63 1006.81
Thickness
5763 5763 5761 5761 5763 5763 5763 5762 5762 5762 5762 5762 5763 5764 5764 5764 5764 5763 5762 5758 5757 5755 5755 5754 5753 5752 5751 5750 5749 5749 5748 5747 5746 5745 5743 5742 5741 5739 5738 5737 5735 5734 5733
5761 5760 5760 5759 5760 5760 5761 5760 5761 5760 5761 5761 5761 5762 5761 5762 5761 5761 5761 5759 5756 5755 5754 5753 5752 5751 5751 5750 5749 5748 5748 5747 5745 5744 5743 5742 5741 5739 5738 5737 5735 5734 5732
5758 5758 5758 5758 5759 5758 5758 5758 5759 5759 5759 5760 5759 5759 5759 5759 5760 5759 5760 5759 5757 5755 5753 5752 5751 5751 5750 5749 5748 5748 5747 5745 5745 5743 5742 5741 5740 5739 5738 5736 5735 5733 5732
5756 5756 5757 5757 5756 5757 5757 5756 5757 5757 5757 5757 5757 5757 5758 5757 5757 5758 5758 5758 5757 5757 5754 5752 5751 5750 5749 5748 5748 5747 5746 5744 5743 5743 5742 5741 5739 5738 5737 5736 5734 5733 5731
5755 5754 5755 5754 5754 5755 5755 5755 5755 5753 5753 5753 5754 5755 5757 5757 5757 5757 5757 5757 5756 5755 5754 5752 5750 5749 5748 5747 5746 5745 5744 5743 5742 5741 5741 5740 5739 5738 5737 5735 5734 5733 5731
5753 5753 5753 5751 5752 5752 5751 5750 5749 5750 5750 5750 5753 5754 5754 5755 5755 5755 5756 5755 5754 5753 5753 5752 5750 5748 5747 5746 5745 5744 5743 5742 5740 5740 5739 5738 5738 5736 5735 5734 5733 5731 5730
5751 5750 5751 5750 5749 5749 5747 5748 5747 5747 5747 5748 5747 5747 5750 5752 5752 5752 5752 5752 5753 5751 5750 5749 5749 5748 5746 5743 5742 5741 5741 5740 5739 5738 5737 5737 5736 5735 5734 5733 5731 5730 5728
5749 5749 5747 5748 5747 5746 5744 5744 5743 5743 5745 5745 5743 5742 5740 5742 5745 5749 5748 5747 5748 5748 5748 5747 5746 5745 5745 5744 5741 5740 5739 5738 5737 5736 5735 5734 5733 5732 5732 5731 5729 5728 5726
5747 5745 5745 5744 5744 5744 5743 5741 5740 5739 5739 5741 5742 5739 5734 5734 5738 5742 5743 5743 5743 5743 5744 5744 5743 5742 5742 5741 5740 5737 5736 5735 5734 5734 5733 5732 5731 5730 5730 5729 5727 5725 5723
5745 5744 5743 5741 5740 5741 5739 5739 5739 5738 5735 5735 5736 5736 5736 5735 5731 5731 5735 5738 5738 5738 5739 5741 5741 5740 5739 5738 5736 5735 5734 5733 5732 5731 5730 5729 5728 5728 5727 5726 5724 5722 5720
5743 5742 5741 5739 5738 5738 5737 5735 5735 5734 5733 5731 5731 5731 5731 5731 5731 5728 5726 5729 5732 5734 5735 5736 5736 5736 5735 5735 5734 5733 5731 5730 5729 5728 5728 5726 5725 5724 5723 5722 5720 5718 5717
5742 5741 5739 5736 5735 5734 5732 5731 5731 5730 5729 5728 5728 5728 5727 5726 5725 5726 5724 5723 5724 5728 5731 5732 5733 5733 5732 5732 5731 5729 5727 5727 5726 5725 5724 5723 5722 5721 5719 5718 5716 5714 5713
5741 5738 5737 5734 5732 5730 5729 5728 5727 5726 5725 5724 5723 5724 5724 5724 5724 5722 5720 5720 5720 5724 5725 5728 5730 5729 5730 5729 5727 5725 5724 5723 5722 5721 5720 5719 5718 5717 5715 5713 5711 5710 5709
5739 5736 5733 5731 5729 5727 5726 5725 5725 5724 5722 5721 5721 5720 5720 5721 5721 5719 5717 5716 5715 5717 5720 5722 5725 5725 5725 5725 5723 5720 5721 5719 5718 5717 5716 5715 5714 5712 5710 5709 5707 5705 5704
5737 5734 5732 5729 5727 5725 5723 5722 5721 5719 5718 5718 5718 5717 5716 5717 5717 5717 5717 5715 5711 5709 5712 5716 5718 5720 5719 5719 5717 5717 5717 5715 5713 5712 5711 5710 5708 5706 5705 5703 5702 5701 5700
5733 5731 5730 5727 5725 5723 5721 5719 5718 5716 5715 5714 5713 5711 5710 5712 5712 5713 5713 5712 5711 5709 5707 5711 5711 5714 5713 5714 5711 5711 5711 5710 5708 5707 5706 5704 5702 5701 5699 5697 5696 5695 5694
5730 5728 5726 5724 5722 5720 5718 5715 5715 5713 5711 5710 5709 5707 5706 5706 5707 5708 5708 5708 5707 5706 5702 5704 5707 5707 5704 5705 5706 5706 5706 5705 5704 5702 5700 5698 5697 5695 5692 5691 5689 5688 5687
5728 5726 5723 5720 5718 5716 5714 5712 5710 5709 5706 5705 5704 5703 5702 5703 5701 5702 5702 5703 5702 5701 5699 5697 5698 5699 5697 5698 5698 5699 5700 5701 5699 5696 5694 5692 5690 5688 5686 5685 5683 5681 5680
5726 5723 5720 5717 5715 5713 5710 5708 5706 5704 5703 5701 5699 5698 5698 5697 5696 5697 5696 5697 5697 5698 5696 5694 5693 5693 5693 5693 5691 5692 5693 5692 5692 5690 5687 5684 5683 5681 5679 5678 5676 5675 5674
5723 5720 5717 5714 5712 5709 5707 5705 5702 5700 5698 5696 5695 5694 5693 5692 5691 5690 5690 5690 5690 5690 5690 5689 5688 5687 5686 5686 5685 5685 5684 5684 5684 5684 5681 5678 5675 5674 5673 5672 5670 5669 5667
5721 5717 5714 5711 5709 5706 5704 5700 5698 5697 5694 5692 5690 5689 5688 5686 5684 5683 5685 5684 5684 5684 5684 5683 5682 5681 5680 5678 5679 5680 5678 5676 5676 5676 5674 5673 5672 5670 5668 5665 5664 5662 5661
5716 5713 5710 5707 5705 5703 5697 5693 5691 5692 5689 5687 5685 5684 5683 5681 5678 5675 5674 5674 5674 5676 5676 5676 5676 5675 5673 5674 5673 5674 5672 5671 5667 5669 5668 5666 5666 5664 5663 5661 5659 5657 5654
5712 5709 5706 5703 5700 5695 5690 5687 5684 5686 5685 5683 5680 5678 5679 5678 5673 5672 5670 5668 5667 5666 5666 5668 5668 5668 5668 5668 5666 5666 5665 5664 5662 5662 5660 5659 5659 5658 5657 5655 5652 5650 5648
5708 5704 5701 5698 5695 5690 5684 5680 5678 5679 5679 5677 5675 5673 5671 5670 5668 5665 5664 5664 5664 5663 5662 5662 5662 5662 5662 5661 5660 5659 5657 5656 5655 5654 5653 5651 5651 5650 5650 5649 5645 5644 5642
5704 5700 5697 5694 5689 5685 5679 5675 5671 5675 5673 5672 5670 5668 5666 5664 5659 5656 5657 5657 5657 5657 5655 5655 5654 5654 5653 5652 5652 5651 5651 5651 5648 5647 5647 5644 5643 5642 5642 5642 5640 5638 5637
5700 5697 5693 5690 5686 5681 5674 5670 5666 5670 5668 5667 5665 5663 5657 5655 5651 5649 5650 5650 5649 5650 5651 5651 5648 5647 5647 5646 5644 5644 5645 5644 5642 5640 5641 5638 5637 5636 5634 5636 5636 5634 5633